DateTimeUTC,F1_A11,F1_S11,BsB_S11,BsG_S11,BsR_S11,BbsB_S11,BbsG_S11,BbsR_S11,BaB_A11,BaG_A11,BaR_A11,Tu_S11,T_S11,Uu_S11,U_S11,P_S11,T1_A11
2021-11-10T06:00:00Z,00000200,21000000,,,,,,,0000.01,0000.30,0000.29,18.4,25.3,,00.0,0638.9,31.0
2021-11-10T06:01:00Z,00000200,21000000,,,,,,,0000.10,0000.19,-000.00,18.4,25.3,,00.0,0638.9,31.0
2021-11-10T06:02:00Z,00000200,21000000,,,,,,,-000.25,-000.20,-000.07,18.4,25.3,,00.0,0638.9,31.0
2021-11-10T06:03:00Z,00000200,61000000,,,,,,,0000.09,0000.32,0000.29,18.5,25.4,,00.0,0638.9,31.0
2021-11-10T06:04:00Z,00000200,41000000,0000.28,0000.16,0000.32,0000.07,-000.32,-000.39,-000.20,-000.43,-000.09,18.8,25.3,,00.0,0639.7,31.0
2021-11-10T06:05:00Z,00000200,01000000,-000.02,-000.01,0000.07,0000.38,-000.27,-000.15,0000.41,0000.08,-000.66,18.8,25.2,,00.0,0639.8,31.0
2021-11-10T06:06:00Z,00000200,01000000,-000.05,-000.14,-000.04,0000.15,0000.15,-000.01,-000.06,0000.19,0000.46,18.7,25.2,,00.0,0639.8,30.9
2021-11-10T06:07:00Z,00000200,01000000,-000.81,-000.07,-000.11,0000.10,0000.10,-000.27,-000.09,-000.13,0000.14,18.6,25.1,,00.0,0639.8,30.9
2021-11-10T06:08:00Z,00000200,01000000,-000.10,-000.09,0000.17,0000.46,0000.06,-000.36,-000.25,-000.27,-000.48,18.5,25.1,,00.0,0639.8,30.9
2021-11-10T06:09:00Z,00000200,01000000,0000.01,-000.08,0000.06,-000.31,-000.21,-000.09,-000.03,-000.47,-000.30,18.4,25.0,,00.0,0639.7,30.9
2021-11-10T06:10:00Z,00000200,01000000,0000.37,-000.32,0000.15,0000.42,-000.11,-000.07,0000.09,0000.46,0000.26,18.3,25.0,,00.0,0639.8,30.9
2021-11-10T06:11:00Z,00000200,01000000,0000.04,0000.15,-000.18,0000.33,0000.14,-000.20,-000.36,-000.44,-000.54,18.4,25.0,,00.0,0639.8,30.9
2021-11-10T06:12:00Z,00000200,01000000,0000.03,-000.09,0000.29,-000.49,-000.09,-000.00,0000.24,0000.35,0000.30,18.5,25.0,,00.0,0639.7,30.9
2021-11-10T06:13:00Z,00000200,01000000,-000.01,0000.08,-000.00,0000.52,-000.06,0000.06,0000.23,0000.17,0000.47,18.5,25.0,,00.0,0639.8,30.9
2021-11-10T06:14:00Z,00000200,01000000,0000.19,-000.02,0000.13,-000.25,-000.14,0000.14,-000.18,-000.19,-000.32,18.6,25.1,,00.0,0639.8,30.9
2021-11-10T06:15:00Z,00000200,01000000,-000.69,0000.03,0000.13,0000.80,-000.09,0000.13,0000.01,0000.04,0000.10,18.7,25.1,,00.0,0639.8,31.0
2021-11-10T06:16:00Z,00000200,01000000,0000.19,0000.17,-000.05,0000.32,-000.19,0000.37,-000.03,0000.13,-000.06,18.7,25.1,,00.0,0639.8,31.0
2021-11-10T06:17:00Z,00000200,01000000,0000.55,0000.05,0000.14,0000.39,-000.46,-000.27,0000.67,-000.05,0000.30,18.8,25.1,,00.0,0639.8,31.0
2021-11-10T06:18:00Z,00000200,01000000,-000.11,-000.37,0000.25,0000.60,-000.15,0000.35,-000.54,0000.12,-000.17,18.9,25.2,,00.0,0639.8,31.0
2021-11-10T06:19:00Z,00000200,01000000,-000.00,-000.04,-000.19,-000.07,-000.29,-000.03,0000.22,-000.14,-000.02,18.9,25.2,,00.0,0639.8,31.0
2021-11-10T06:20:00Z,00000200,01000000,-000.25,-000.02,-000.17,0000.42,-000.01,-000.10,-000.58,0000.08,0000.10,18.9,25.2,,00.0,0639.8,31.0
2021-11-10T06:21:00Z,00000200,01000000,-000.61,0000.01,0000.03,-000.07,-000.32,-000.05,0000.45,-000.10,-000.21,18.9,25.2,,00.0,0639.8,31.0
2021-11-10T06:22:00Z,00000200,01000000,0000.18,0000.30,0000.13,-000.61,-000.03,-000.04,-000.13,0000.08,-000.46,18.8,25.2,,00.0,0639.9,31.0
2021-11-10T06:23:00Z,00000200,01000000,0000.19,-000.03,-000.26,0000.02,-000.27,0000.08,-000.55,-000.72,-000.17,18.7,25.1,,00.0,0639.9,30.9
2021-11-10T06:24:00Z,00000200,01000000,-000.80,-000.14,0000.10,-000.03,-000.14,-000.13,-000.16,0000.05,0000.21,18.6,25.1,,00.0,0639.9,30.9
2021-11-10T06:25:00Z,00000200,01000000,0000.72,-000.16,0000.11,-000.11,-000.33,0000.09,-000.10,-000.15,-000.30,18.6,25.1,,00.0,0639.9,30.9
2021-11-10T06:26:00Z,00000200,01000000,-000.25,-000.28,0000.18,-000.02,-000.23,0000.18,0000.21,-000.08,-000.43,18.6,25.1,,00.0,0639.9,30.9
2021-11-10T06:27:00Z,00000200,01000000,-000.39,0000.39,-000.06,0000.37,-000.13,-000.07,-000.16,-000.30,0000.37,18.7,25.1,,00.0,0639.9,30.9
2021-11-10T06:28:00Z,00000200,01000000,0000.06,-000.69,0000.20,0000.36,0000.18,0000.17,0000.05,0000.21,-000.00,18.8,25.1,,00.0,0639.9,31.0
2021-11-10T06:29:00Z,00000200,01000000,-000.03,-000.24,0000.24,0000.13,-000.24,-000.08,-000.13,0000.64,0000.18,18.8,25.2,,00.0,0639.9,31.0
2021-11-10T06:30:00Z,00000200,01000000,-000.13,-000.00,-000.37,0000.07,-000.32,-000.05,0000.09,-000.37,-000.07,18.9,25.2,,00.0,0639.9,31.0
2021-11-10T06:31:00Z,00000200,01000000,0000.36,0000.19,0000.06,-000.13,0000.11,-000.09,0000.30,0000.19,-000.04,18.9,25.2,,00.0,0640.0,31.0
2021-11-10T06:32:00Z,00000200,01000000,-000.75,-000.02,0000.01,0000.06,-000.35,0000.31,0000.06,-000.16,0000.26,19.0,25.3,,00.0,0640.0,31.0
2021-11-10T06:33:00Z,00000200,01000000,-000.13,-000.32,-000.19,-000.22,-000.54,-000.03,-000.11,-000.12,-000.27,19.1,25.3,,00.0,0640.0,31.0
2021-11-10T06:34:00Z,00000200,01000000,-000.60,0000.11,0000.03,-000.35,-000.14,-000.07,0000.13,0000.12,0000.21,19.1,25.3,,00.0,0640.0,31.0
2021-11-10T06:35:00Z,00000200,01000000,-000.36,-000.34,0000.07,-000.10,0000.13,0000.28,-000.28,-000.18,-000.53,19.1,25.3,,00.0,0640.0,31.0
2021-11-10T06:36:00Z,00000200,01000000,0000.06,0000.33,-000.31,0000.63,-000.03,-000.26,0000.09,-000.39,0000.17,19.0,25.3,,00.0,0640.0,31.0
2021-11-10T06:37:00Z,00000200,01000000,-000.82,-000.34,0000.20,0000.75,-000.02,-000.22,-000.01,0000.29,0000.07,18.9,25.2,,00.0,0640.0,31.0
2021-11-10T06:38:00Z,00000200,01000000,-000.22,0000.17,0000.09,0000.87,0000.07,-000.29,-000.19,-000.15,-000.35,18.8,25.2,,00.0,0640.0,30.9
2021-11-10T06:39:00Z,00000200,01000000,-000.44,0000.12,-000.21,0000.10,-000.32,-000.41,0000.32,0000.11,0000.13,18.7,25.2,,00.0,0640.0,30.9
2021-11-10T06:40:00Z,00000200,01000000,-000.16,0000.18,-000.02,-000.21,-000.09,-000.00,-000.14,0000.27,-000.04,18.7,25.1,,00.0,0640.0,30.9
2021-11-10T06:41:00Z,00000200,01000000,0000.29,0000.21,0000.14,0000.05,-000.38,-000.03,0000.05,-000.16,0000.33,18.7,25.1,,00.0,0640.0,30.9
2021-11-10T06:42:00Z,00000200,01000000,-000.30,0000.24,-000.09,-000.06,-000.15,-000.09,0000.06,-000.19,-000.09,18.7,25.2,,00.0,0640.0,30.9
2021-11-10T06:43:00Z,00000200,01000000,-000.19,-000.13,0000.03,-000.41,-000.41,0000.10,-000.25,0000.18,0000.14,18.8,25.2,,00.0,0640.0,31.0
2021-11-10T06:44:00Z,00000200,01000000,-000.27,-000.24,0000.17,0000.26,-000.24,-000.17,0000.28,-000.10,-000.02,18.8,25.2,,00.0,0640.0,31.0
2021-11-10T06:45:00Z,00000200,01000000,0000.02,0000.20,0000.08,0000.27,0000.10,0000.03,-000.20,-000.11,0000.40,18.9,25.2,,00.0,0640.0,31.0
2021-11-10T06:46:00Z,00000200,01000000,0000.11,-000.05,-000.08,0000.75,-000.20,0000.21,0000.44,0000.81,-000.15,19.0,25.3,,00.0,0640.0,31.0
2021-11-10T06:47:00Z,00000200,01000000,0000.30,-000.26,-000.11,0000.15,-000.31,-000.11,-000.05,-000.26,0000.03,19.0,25.3,,00.0,0640.0,31.0
2021-11-10T06:48:00Z,00000200,01000000,-000.15,0000.03,-000.02,-000.10,-000.07,0000.01,-000.16,-000.02,0000.00,19.1,25.3,,00.0,0640.0,31.0
2021-11-10T06:49:00Z,00000200,01000000,-000.07,-000.12,-000.15,-000.29,-000.18,-000.32,0000.16,0000.07,-000.09,19.1,25.3,,00.0,0640.0,31.0
2021-11-10T06:50:00Z,00000200,01000000,0000.30,0000.11,-000.30,-000.66,-000.06,-000.15,-000.06,0000.08,0000.19,19.0,25.3,,00.0,0640.0,31.0
2021-11-10T06:51:00Z,00000200,01000000,-001.26,-000.01,-000.08,0000.13,0000.02,-000.27,-000.32,-000.35,-000.68,18.9,25.3,,00.0,0640.0,31.0
2021-11-10T06:52:00Z,00000200,01000000,-000.57,0000.08,0000.11,-000.26,-000.10,-000.16,0000.01,-000.05,0000.14,18.8,25.2,,00.0,0640.0,30.9
2021-11-10T06:53:00Z,00000200,01000000,-000.83,0000.04,0000.20,0000.72,-000.34,-000.12,0000.18,0000.19,-000.19,18.7,25.2,,00.0,0640.0,30.9
2021-11-10T06:54:00Z,00000200,01000000,0000.58,-000.03,0000.08,0000.32,-000.23,-000.10,-000.09,-000.28,-000.06,18.6,25.1,,00.0,0640.0,30.9
2021-11-10T06:55:00Z,00000200,01000000,0000.08,-000.44,0000.01,0000.44,-000.34,-000.09,-000.53,-000.21,0000.28,18.6,25.1,,00.0,0640.0,30.9
2021-11-10T06:56:00Z,00000200,01000000,0000.27,0000.02,0000.26,0000.33,-000.21,-000.14,0000.78,0000.43,0000.03,18.6,25.1,,00.0,0640.0,30.9
2021-11-10T06:57:00Z,00000200,41000000,,,,,,,0000.66,0001.09,0001.07,18.7,25.1,,00.0,0640.1,30.9
2021-11-10T06:58:00Z,00000200,61000000,,,,,,,-000.65,-000.79,-000.77,18.4,25.3,,00.0,0639.1,31.0
2021-11-10T06:59:00Z,00000200,21000000,,,,,,,-000.11,-000.16,0000.14,18.4,25.4,,00.0,0639.1,31.0
